Timeline UpdatesTrip UpdatesNews PostsPvt Posts♥♥Travel TipsAdmin PostsConv PostsFollowed PostsChat RequestsBlog PostsPNR Posts

Disclaimer
Search
 
 
Sat Nov 29, 2014 11:46:09 ISTHomeTrainsΣChainsAtlasPNRForumGalleryNewsFAQTripsMembersLoginFeedback
No Recent News for this Train
Other Trains in the News **new
Latest...
Will depart from originating station at 15:30 hours w.e.f. 01.09.2014
Wed Aug 27, 2014 (04:18AM)
⇐ Return Journey: Train# 13352-Slip

18189/Tatanagar- Alappuzha Express-Slip

Time-Table HAS CHANGED.
Nov 02 (10:31PM)
Change Departure Station:
Change Arrival Station:
Post a Train Travel TipPost a Train Travel Tip **new
Post a Comment/Question/Picture/VideoPost a Comment/Question/Picture/Video
Pantry/Catering
✓ Pantry Car Avbl
✓ Catering Avbl
.pantry car available from rourkela to allappuzha because pantry car...
Read more...
is available in dhanbad portion
Loco/Rake Reversals
MAS/Chennai Central (12); VSKP/Visakhapatnam Junction (8); SRR/Shoranur Junction (7);
RSA - Rake Sharing
Rake/Coach Composition
LOCO-SLR*-GS*-S1*-S2*-S3*-S4*-S5*-S6*-S7*-S8*-PC*-A1*-B1*-B2-ST1-ST2-ST3-ST4-ST5-GS-SLR; *= Dhanbad portion attached at ROU.
Loco
Loco In-Charge:- TATA - ROU :- TATA WAM-4/ASN WAM-4 ROU - VSKP...
Read more...
:- VSKP/R/BNDM WDM-3A VSKP - MAS :- AJJ WAM-4/BZA WAM-4 - RPM WAP-4/1 MAS - ALLP :- RPM WAP-1/WAP-4, AJJ WAM-4/WAP-4
News    PNR    Forum    Time-Table    Availability    Fare Chart    Map    Arr/Dep History    Trips    Gallery    ΣChains    X/O    Timeline    
Travel Time: 6h 33m    10 halts    Distance: 294 km    Avg Speed: 44 km/hr
Type: Mail/Express
Zone: SER/South Eastern
Departs @ 17:45
Platform# ???
SMTWTFS
Vijayawada Junction/BZA 
Arrives @ 00:18 +1 night
Platform# 2
SMTWTFS
Gudur Junction/GDR 

10 halts. 47 intermediate Stations between Vijayawada Junction and Gudur Junction

Show ALL intermediate Stations  Show Old Time-Table

#TrkCodeStation NameX/OArrivesAvgDepartsAvgHaltPFDay#KmSpeedElevZoneAddress
1/==/TATATatanagar Junction (5)  -15:45 15:30+311-1171.862164mSER91-657-2423026, Jharkhand
2/==/SINISini Junction (3)X  16:10 15:56+916:11 15:57+101m--1-1144.861182mSERNational Highway 33, Jharkhand
3/==/RKSNRajkharsawan Junction (3)  16:25 16:12+1116:26 16:13+111m--1-1129.655189mSERSaraikela Kharswan District, Jharkhand
4/==/CKPChakradharpur (3)  16:50 16:35+516:55 16:40+65m11-1109.592235mSERChakradharpur (West Singhbhum), Jharkhand
5/==/GOLGoilkera (2)  17:16 17:02+1217:17 17:03+131m--1-1075.857333mSERGoilkera, Jharkhand
6/==/MOUManoharpurX  17:46 17:32+1017:47 17:33+111m--1-1048.369228mSERManoharpur, Jharkhand
7/==/BNDMBondamunda (2)  18:14 18:02+418:15 18:03+31m--1-1015.018213mSERRourkela, Odisha
8/--/ROURourkela Junction (5)X18:35 18:25+719:00+4:4825 35m11-1008.564198mSERRourkela, Odisha
9/==/GPRaj Gangpur (3)O  19:28-19:29-1m--1-978.742237mSERRaj Ganpur, Odisha
10/==/BMBBamra (3)  19:59 20:19-20:00 20:20-1m--1-944.1110259mSERBamra PH : 06642-229268, Odisha
11/==/JSGJharsuguda Junction (5)  20:40-20:50-10m11-907.566236mSERJharsuguda, Odisha
12|==!RGLRengaliO  21:15 21:14-21:17 21:15-2 1m--1-881.265208mECoRState Highway 10, Odisha
13|==|SBPDSambalpur Road  21:35 21:34-21:37 21:35-2 1m--1-860.49161mECoRSambalpur, Odisha
14|--|SBPSambalpur Junction (3)X  21:45-21:55-10m11-858.961159mECoRSambalpur, Odisha
15|--|ATSAttabira  22:18 22:19-22:20-2 1m--1-834.477164mECoRBargarh, Odisha
16|--|BRGABargarh Road (3)XO  22:34-22:39-5m--1-816.468185mECoRBargarh, Odisha
17|--|BRPLBarpaliX  22:57 22:56-22:59 22:57-2 1m--1-797.265178mECoRBarpali, Odisha
18|--|BLGRBalangir (3)  23:50-23:55-5m--1-740.146210mECoRBolangir, Odisha
19|--|BUDMBadmal  00:50 00:51-00:52-2 1m--2-696.723209mECoRDumerbahal Rd, Odisha
20|--|TIGTitlagarh Junction (3)XO  01:45-01:55-10m--2-676.752212mECoRTitlagarh, Odisha
21%==%KSNGKesinga (1)XO  02:10 02:11-02:12-2 1m12-662.861183mECoRKesinga, Odisha
22%==%RPRDRupra RoadO  02:27 02:28-02:29-2 1m--2-646.640233mECoRKalahandi, Odisha
23%==%NRLRNorla RoadO  02:38 02:39-02:40-2 1m--2-639.958247mECoRKalahandi, Odisha
24%==%AMBAmbodala  03:05 03:06-03:07-2 1m--2-614.938374mECoRState Highway 6, Odisha
25%==%MNGDMunigudaX  03:45 03:46-03:47-2 1m--2-590.040335mECoRMuniguda, Odisha
26%==%THVTherubaliO  04:40 04:41-04:42-2 1m--2-554.030270mECoRRayagada, Odisha
27%==%SPRDSingapuram Road (2)X  05:00 05:01-05:02-2 1m--2-544.615248mECoRJaykaypur, Odisha
28%==%RGDARayagada (3)O  05:40-05:55-15m--2-535.472229mECoRRayagada ph.no 06856-222407, Odisha
29%==%PVPTParvatipuram TownXO  06:32 06:33-06:34-2 1m--2-490.120121mECoRParvatipuram, Andhra Pradesh
30%==%PVPParvatipuram (3)  06:38 06:39-06:40-2 1m--2-488.472122mECoRParvatipuram, Andhra Pradesh
31%==%VBLBobbili Junction (2)X  07:00-07:03-3m22-464.549137mECoRBobbili, Andhra Pradesh
32%==%VZMVizianagaram Junction (5)  08:15 08:10-08:20 08:15-5m--2-410.38463mECoRVizianagaram, Andhra Pradesh
33/==/KTVKottavalasa Junction (5)X  08:48 08:40-08:50 08:42-2m--2-375.35758mECoRVizianagaram District, Andhra Pradesh
34/==/SCMSimhachalam (2)X  09:17 09:01-09:19 09:02-2 1m--2-357.2927mECoRVisakhapatnam, Andhra Pradesh
35/==/VSKPVisakhapatnam Junction (8)XO10:05 09:55-10:25 10:10-20 15m42-349.13311mECoRVishakhapatnam 530001, Andhra Pradesh
36/==/AKPAnakapalle (3)  11:10 11:09-11:11 11:10-1m--2-316.86830mSCRAnakapalle ph.no . 08924-221698, Andhra Pradesh
37/==/YLMElamanchili (2)X  11:31-11:32-1m--2-293.07123mSCRVisakhapatnam District, Andhra Pradesh
38/==/NRPNarsipatnam Road (2)  11:47-11:48-1m--2-275.38418mSCRVisakhapatnam District, Andhra Pradesh
39/==/TUNITuni (2)X  12:04-12:05-1m12-253.07124mSCRTuni ph.no. 08854-252172, Andhra Pradesh
40/==/ANVAnnavaram (3)  12:19-12:20-1m12-236.37627mSCREast Godavari District, Andhra Pradesh
41/==/GLPGollaproluX  12:35-12:36-1m--2-217.34919mSCRGollaprollu, Andhra Pradesh
42/==/PAPPithapuram (2)  12:43-12:44-1m--2-211.57222mSCREast Godavari District, Andhra Pradesh
43/==/SLOSamalkot Junction (3)  12:54-12:55-1m32-199.58418mSCRSamalkot, Andhra Pradesh
44/==/APTAnaparti (3)  13:14-13:15-1m--2-173.03821mSCREast Godavari District, Andhra Pradesh
45/==/DWPDwarapudi (3)  13:21-13:22-1m--2-169.22420mSCREast Godavari District, Andhra Pradesh
46/==/RJYRajahmundry (3)  14:11-14:16-5m12-149.33623mSCRRajahmundry ph.no. 0883-2420541, Andhra Pradesh
47/==/KVRKovvur (3)  14:29-14:30-1m--2-141.56125mSCRWest Godavari, Andhra Pradesh
48/==/NDDNidadavolu Junction (3)  14:44-14:45-1m--2-127.17120mSCRNidadavolu jtn ph.no. 08813-210325, Andhra Pradesh
49/==/TDDTadepalligudem (3)X  15:02-15:03-1m--2-107.18718mSCRTadepalligudem, Andhra Pradesh
50/==/EEEluru (3)X  15:36-15:37-1m32-59.43319mSCREluru Ph.no. 08812 226401., Andhra Pradesh
51/==/BZAVijayawada Junction (10)»X  17:25-17:45-20m--20.06924mSCRVijayawada 520001, Andhra Pradesh
52/==/TELTenali Junction (5)O  18:12-18:13-1m3231.24316mSCRTel: 08644-227834, Andhra Pradesh
53/==/NDONidubrolu (3)  18:33 18:44-18:34 18:45-1m--253.3659mSCRNidubrolu, Andhra Pradesh
54/==/BPPBapatla (3)  18:53 19:04-18:54 19:05-1m--273.86510mSCRBapatla, Andhra Pradesh
55/==/CLXChirala (4)  19:06 19:19-19:07 19:20-1m--288.9878mSCRChirala, Andhra Pradesh
56/==/CJMChinnaganjam (3)X  19:23 19:34-19:24 19:35-1m--2109.2519mSCRChinna Ganjam, Andhra Pradesh
57/==/OGLOngole (3)X  20:12 20:09-20:13 20:10-1m32138.36812mSCROngole, Andhra Pradesh
58/==/SKMSingarayakonda (2)X  20:35-20:36-1m22166.59126mSCRSingarayakonda, Andhra Pradesh
59/==/KVZKavali (4)X  21:01-21:02-1m22204.37621mSCRKavali, Andhra Pradesh
60/==/BTTRBitragunta (2)X  21:15-21:16-1m22220.74515mSCRBitragunta, Andhra Pradesh
61/==/NLRNellore (4)X  22:02-22:03-1m32255.01721mSCRNellore, Andhra Pradesh
62/==/GDRGudur Junction (3)•  00:18-00:20-2m23293.56919mSCRGudur, Andhra Pradesh
63/==/NYPNayadupeta (3)  00:44-00:45-1m23321.26833mSRNayudupeta, Andhra Pradesh
64/==/SPESullurupeta (3)  01:09-01:10-1m23348.4479mSR524121., Andhra Pradesh
65/==/MASChennai Central (12)03:00 02:55-03:25-25 30m83430.9599mSRChennai 600003, Tamil Nadu
66/==/AJJArakkonam Junction (8)X  04:35-04:40-5m13499.55691mSRArakkonam, Tamil Nadu
67/==/KPDKatpadi Junction (5)XO  05:50 05:45-05:55 05:50-5m13560.377213mSRVellore 632007, Tamil Nadu
68/==/GYMGudiyattam (3)O  06:14 06:09-06:15 06:10-1m33584.891269mSRVellore, Tamil Nadu
69/==/VNVaniyambadiXO  06:44 06:39-06:45 06:40-1m--3628.724357mSRVaniyambadi, Tamil Nadu
70/==/JTJJolarpettai Junction (5)O  07:18-07:20-2m--3644.239405mSRJolarpettai, Tamil Nadu
71/==/TPTTirupattur (2)  07:30 07:31-07:32-2 1m--3651.373392mSRTirupattur ph.no. 04179-220062, Tamil Nadu
72/==/SLYSamalpatti  07:50 07:51-07:52-2 1m--3674.587388mSRSamalpatti ph.no. 04341-245601, Tamil Nadu
73/==/BQIBommidiX  08:23 08:24-08:25-2 1m--3721.1520mSRBommidi ph.no. 04346-244441, Tamil Nadu
74/==/SASalem Junction (6)XO  09:00 09:15-09:05 09:20-5m--3764.461283mSRSalem, Tamil Nadu
75/==/EDErode Junction (4)X  10:15 10:20-10:25 10:30-10m23825.870175mSRErode ph.no: 0424-2256111, Tamil Nadu
76/==/TUPTiruppur (2)  11:03 11:13-11:05 11:15-2m13876.043305mSRTiruppur. Ph:0421-2200450, Tamil Nadu
77/==/CBECoimbatore Main Junction (6)  12:08 12:25-12:10 12:30-2 5m--3926.439416mSRCoimbatore 641001, Tamil Nadu
78/==/PGTPalakkad Junction (4)X  13:30 13:55-13:35 14:00-5m--3981.73684mSRPalghat Tel: 0491 2555231, Kerala
79/==/SRRShoranur Junction (7)X14:40 15:15-15:25-45 10m531026.44226mSRShoranur ph.no 0466-2222913, Kerala
80/==/TCRThrissur (4)  16:27 16:12-16:30 16:15-3m131059.3606mSRThrissur Tel: 0487 2423150, Kerala
81/==/AWYAluva (3)XOO  17:18 17:10-17:20 17:12-2m131113.91812mSRPh: 0484-2624141, Kerala
82/-=/ERSErnakulam Junction (South) (6)  18:26 18:15-18:30 18:25-4 10m131133.3413mSRErnakulam 682016, Kerala
83/--/TUVRTuravur (2)  19:04 18:59-19:05 19:00-1m--31156.7665mSRThuravoor, Kerala
84/--/SRTLCherthala (3)O  19:19 19:09-19:20 19:10-1m231166.7217mSRPh: 0478- 2812500, Kerala
85/--/ALLPAlappuzha (3)  20:20--331190.8-8mSRPh:0477-2253965, Kerala
Scroll to Top
Scroll to Bottom


Go to Mobile site